Location: Newark
(48.2308°N, 120.8549°W)
Time: 23:01:17
(UTC+00:00)

Transit 2A Rocket - Pass Details

Date: 29 May 2020
Orbit: 584 x 919 km, 66.7° (Epoch: 10 July)

Event Time Altitude Azimuth Distance (km) Brightness Sun altitude
Rises 15:32:03 0° 323° (NW) 3,492 8.1 31.1°
Reaches altitude 10° 15:34:32 10° 321° (NW) 2,578 7.5 31.5°
Maximum altitude 15:40:32 68° 240° (WSW) 989 5.8 32.5°
Drops below altitude 10° 15:46:36 10° 159° (SSE) 2,599 8.2 33.5°
Sets 15:49:06 0° 157° (SSE) 3,522 8.8 33.9°
